Albert J Ellis Airport
KOAJ : now visible

Airfield :











YOU CAN JOIN US ON...

 
LOGIN :

Register | Disclaimer

   EN    FR    IT 

 









Legend :    VFR   Marginal VFR   IFR   Intensive IFR   Very Intensive IFR
Visi :
Ceiling :
>= 8 km
>= 3000ft
5 to 8 km
1000 to 3000 ft
1500m to 5 km
500 to 1000 ft
800 to 1500m
200 to 500 ft
< 800m
< 200 ft
Symbols :   Thunderstorms  Fog  Heavy snow  Heavy precipitations  Wind > 20 kt






- Airport Elevation : 94 ft


KOAJ - Albert J Ellis

CURRENT METAR :
  • 230056Z 20004KT 10SM CLR 19/18 A2994 RMK AO2 SLP139 T01890183

EXPIRED METARs :
  • 222356Z 21003KT 9SM CLR 19/19 A2993 RMK AO2 SLP136 60098 T01940189 10222 20194 53004
  • 222256Z 00000KT 10SM CLR 21/20 A2991 RMK AO2 TSE02RAE06 SLP131 P0000 T02060200

TAF KOAJ
Valid from the 23 at 00:00 until the 24 at 00:00 UTC


222323Z 2300/2324 23006KT P6SM SCT100
FM230500 VRB03KT 5SM BR SCT005
FM231100 33004KT 3/4SM BR OVC004
FM231300 34005KT 2SM BR BKN006
FM231600 34005KT P6SM SKC AMD LTD TO CLD VIS AND WIND
KZDC FIR / North America



MET'MAP, your aeronautical weather chart ! - Copyright ORBIFLY December 2007 - Disclaimer

ORBIFLY MET'MAP TEAM :

Programming & Development : Alexandra Zaïnal
Concept & original design : Baudouin d'Aumeries
Assistance for programming : Marc-Olivier Méhu
Technical & hardware support : Manuel Goepfert

Contact : metmap@orbifly.com




SOURCES & CREDITS :

   NOAA       Earth
Advisory